This demonstration page uses our WeatherBlox Daily Observations layout. Learn more.

Left ArrowRight Arrow

Hourly Observations for January 25, 2021

Temp ( °F °C ) Dew Point ( °F °C ) Humidity (%) Winds ( mph kmh ) Pressure ( in mb ) Visibility ( mi km ) Precip ( " mm )
12:53 am 00:53 Mostly Cloudy 6 -14.4 2 -16.7 83 83 ENE 16 26 29.98 1015 10 16 0.00 0.00
1:53 am 01:53 Cloudy 7 -13.9 2 -16.7 80 80 ENE 20 31 29.98 1015 10 16 0.00 0.00
2:53 am 02:53 Cloudy 7 -13.9 1 -17.2 76 76 E 21 33 30.00 1016 10 16 0.00 0.00
3:53 am 03:53 Cloudy 5 -15 0 -17.8 79 79 ENE 18 30 30.00 1016 10 16 0.00 0.00
4:53 am 04:53 Cloudy 4 -15.6 -1 -18.3 80 80 ENE 18 30 30.02 1017 10 16 0.00 0.00
5:32 am 05:32 Cloudy 5 -15 1 -17.2 83 83 ENE 18 30 30.15 1021 10 16 0.00 0.00
5:44 am 05:44 Cloudy 5 -15 1 -17.2 83 83 ENE 15 24 30.15 1021 10 16 0.00 0.00
5:53 am 05:53 Cloudy 4 -15.6 1 -17.2 88 88 ENE 15 24 30.04 1017 9 14 0.00 0.00
6:43 am 06:43 Cloudy 5 -15 2 -16.7 87 87 ENE 16 26 30.17 1022 10 16 0.00 0.00
6:53 am 06:53 Cloudy 6 -14.4 2 -16.7 83 83 E 15 24 30.05 1018 10 16 0.00 0.00
7:53 am 07:53 Cloudy 7 -13.9 3 -16.1 84 84 ENE 17 28 30.07 1018 10 16 0.00 0.00
8:07 am 08:07 Cloudy 7 -13.9 3 -16.1 84 84 ENE 15 24 30.18 1022 9 14 0.00 0.00
8:53 am 08:53 Cloudy 8 -13.3 4 -15.6 83 83 ENE 16 26 30.07 1018 10 16 0.00 0.00
9:05 am 09:05 Cloudy 8 -13.3 4 -15.6 83 83 ENE 15 24 30.17 1022 7 11 0.00 0.00
9:53 am 09:53 Cloudy 10 -12.2 5 -15 80 80 E 16 26 30.09 1019 9 14 0.00 0.00
10:03 am 10:03 Cloudy 10 -12.2 5 -15 80 80 E 15 24 30.18 1022 7 11 0.00 0.00
10:22 am 10:22 Cloudy 11 -11.7 5 -15 77 77 E 17 28 30.17 1022 9 14 0.00 0.00
10:53 am 10:53 Cloudy 12 -11.1 6 -14.4 77 77 E 17 28 30.10 1019 10 16 0.00 0.00
11:53 am 11:53 Cloudy 14 -10 7 -13.9 73 73 E 15 24 30.08 1019 10 16 0.00 0.00
12:53 pm 12:53 Mostly Cloudy 15 -9.4 7 -13.9 70 70 ENE 14 22 30.06 1018 10 16 0.00 0.00
1:53 pm 13:53 Partly Cloudy 16 -8.9 8 -13.3 71 71 ENE 17 28 30.05 1018 10 16 0.00 0.00
2:53 pm 14:53 Mostly Sunny 16 -8.9 7 -13.9 67 67 ENE 16 26 30.05 1018 10 16 0.00 0.00
3:53 pm 15:53 Mostly Sunny 15 -9.4 7 -13.9 70 70 E 16 26 30.06 1018 10 16 0.00 0.00
4:53 pm 16:53 Mostly Sunny 13 -10.6 7 -13.9 77 77 ENE 18 30 30.06 1018 10 16 0.00 0.00
5:53 pm 17:53 Mostly Cloudy 12 -11.1 7 -13.9 80 80 E 18 30 30.07 1018 10 16 0.00 0.00
6:53 pm 18:53 Cloudy 11 -11.7 6 -14.4 81 81 E 15 24 30.09 1019 10 16 0.00 0.00
7:53 pm 19:53 Cloudy 12 -11.1 7 -13.9 80 80 ENE 16 26 30.08 1019 10 16 0.00 0.00
9:53 pm 21:53 Cloudy 13 -10.6 8 -13.3 81 81 E 17 28 30.07 1018 10 16 0.00 0.00
10:53 pm 22:53 Cloudy 12 -11.1 7 -13.9 80 80 E 17 28 30.06 1018 10 16 0.00 0.00
11:53 pm 23:53 Clear 11 -11.7 6 -14.4 81 81 E 18 30 30.05 1018 10 16 0.00 0.00

Powered by AerisWeather